TimeCST,TemperatureF,Dew PointF,Humidity,Sea Level PressureIn,VisibilityMPH,Wind Direction,Wind SpeedMPH,Gust SpeedMPH,PrecipitationIn,Events,Conditions,WindDirDegrees,DateUTC
12:15 AM,44.6,30.2,57,30.06,10.0,East,6.9,-,N/A,,Overcast,100,2013-02-12 06:15:00
12:35 AM,42.8,30.2,61,30.07,10.0,ESE,5.8,-,N/A,,Overcast,110,2013-02-12 06:35:00
12:55 AM,42.8,30.2,61,30.06,10.0,East,4.6,-,N/A,,Overcast,100,2013-02-12 06:55:00
1:15 AM,42.8,30.2,61,30.06,10.0,East,5.8,-,N/A,,Mostly Cloudy,80,2013-02-12 07:15:00
1:35 AM,42.8,30.2,61,30.06,10.0,East,4.6,-,N/A,,Mostly Cloudy,100,2013-02-12 07:35:00
1:55 AM,41.0,32.0,70,30.06,10.0,ENE,3.5,-,N/A,,Mostly Cloudy,70,2013-02-12 07:55:00
2:15 AM,41.0,32.0,70,30.05,10.0,East,3.5,-,N/A,,Mostly Cloudy,100,2013-02-12 08:15:00
2:35 AM,41.0,32.0,70,30.04,10.0,ENE,4.6,-,N/A,,Overcast,70,2013-02-12 08:35:00
2:55 AM,41.0,32.0,70,30.04,10.0,NE,4.6,-,N/A,,Overcast,40,2013-02-12 08:55:00
3:15 AM,41.0,32.0,70,30.04,10.0,NE,4.6,-,N/A,,Overcast,40,2013-02-12 09:15:00
3:35 AM,39.2,32.0,75,30.05,10.0,Calm,Calm,-,N/A,,Overcast,0,2013-02-12 09:35:00
3:55 AM,39.2,32.0,75,30.05,10.0,North,6.9,-,N/A,,Overcast,350,2013-02-12 09:55:00
4:15 AM,39.2,32.0,75,30.04,10.0,NNE,9.2,-,N/A,,Overcast,20,2013-02-12 10:15:00
4:35 AM,39.2,32.0,75,30.05,10.0,NE,10.4,-,N/A,,Overcast,40,2013-02-12 10:35:00
4:55 AM,39.2,32.0,75,30.04,10.0,NE,12.7,-,N/A,,Overcast,40,2013-02-12 10:55:00
5:15 AM,39.2,32.0,75,30.01,10.0,NE,11.5,-,N/A,,Overcast,50,2013-02-12 11:15:00
5:35 AM,37.4,32.0,81,30.00,10.0,NE,6.9,-,N/A,Rain,Light Rain,50,2013-02-12 11:35:00
5:55 AM,37.4,32.0,81,29.99,10.0,NE,11.5,-,N/A,,Overcast,50,2013-02-12 11:55:00
6:15 AM,37.4,33.8,87,30.00,10.0,NE,8.1,-,N/A,Rain,Light Rain,50,2013-02-12 12:15:00
6:35 AM,37.4,35.6,93,29.99,10.0,ENE,10.4,-,0.03,Rain,Light Rain,60,2013-02-12 12:35:00
6:55 AM,37.4,33.8,87,30.00,10.0,ENE,8.1,-,0.06,Rain,Light Rain,70,2013-02-12 12:55:00
7:15 AM,37.4,35.6,93,29.99,10.0,NE,9.2,-,0.03,Rain,Light Rain,50,2013-02-12 13:15:00
7:35 AM,35.6,33.8,93,29.99,10.0,NE,11.5,-,0.06,Rain,Light Rain,40,2013-02-12 13:35:00
7:55 AM,35.6,33.8,93,30.01,10.0,NE,12.7,-,0.08,Rain,Light Rain,40,2013-02-12 13:55:00
8:15 AM,35.6,33.8,93,30.03,10.0,NE,10.4,-,0.05,Rain,Light Rain,40,2013-02-12 14:15:00
8:35 AM,35.6,33.8,93,30.01,10.0,NE,16.1,-,0.13,Rain,Light Rain,40,2013-02-12 14:35:00
8:55 AM,35.6,33.8,93,30.00,10.0,NE,16.1,19.6,0.17,Rain,Light Rain,40,2013-02-12 14:55:00
9:15 AM,35.6,33.8,93,30.02,10.0,NNE,12.7,20.7,0.01,Rain,Light Rain,30,2013-02-12 15:15:00
9:35 AM,35.6,33.8,93,30.04,10.0,NNE,12.7,-,0.05,Rain,Light Rain,20,2013-02-12 15:35:00
9:55 AM,33.8,33.8,100,30.04,10.0,North,15.0,-,0.08,Rain,Light Rain,10,2013-02-12 15:55:00
10:15 AM,33.8,32.0,93,30.06,7.0,North,11.5,-,0.05,Rain,Light Rain,360,2013-02-12 16:15:00
10:35 AM,33.8,32.0,93,30.05,5.0,North,9.2,-,0.08,,Overcast,10,2013-02-12 16:35:00
10:55 AM,33.8,32.0,93,30.05,7.0,NNE,11.5,-,0.11,,Overcast,30,2013-02-12 16:55:00
11:15 AM,33.8,33.8,100,30.04,10.0,NNE,13.8,-,0.01,,Overcast,30,2013-02-12 17:15:00
11:35 AM,33.8,33.8,100,30.03,10.0,NNE,13.8,-,0.01,,Overcast,30,2013-02-12 17:35:00
11:55 AM,33.8,33.8,100,30.03,7.0,NNE,12.7,17.3,0.02,,Overcast,30,2013-02-12 17:55:00
12:15 PM,35.6,35.6,100,30.01,10.0,NNE,16.1,-,N/A,Rain,Light Rain,30,2013-02-12 18:15:00
12:35 PM,35.6,35.6,100,30.00,10.0,NNE,15.0,20.7,N/A,,Overcast,30,2013-02-12 18:35:00
12:55 PM,35.6,35.6,100,29.99,10.0,NNE,16.1,-,N/A,,Overcast,30,2013-02-12 18:55:00
1:15 PM,35.6,35.6,100,29.99,7.0,NE,15.0,-,N/A,,Overcast,40,2013-02-12 19:15:00
1:35 PM,35.6,35.6,100,29.96,7.0,NE,16.1,-,N/A,,Overcast,40,2013-02-12 19:35:00
1:55 PM,35.6,35.6,100,29.98,7.0,NNE,11.5,18.4,N/A,,Overcast,30,2013-02-12 19:55:00
2:15 PM,35.6,35.6,100,29.97,10.0,NE,15.0,18.4,0.01,,Overcast,40,2013-02-12 20:15:00
2:35 PM,35.6,35.6,100,29.95,10.0,NE,15.0,21.9,0.01,,Overcast,40,2013-02-12 20:35:00
2:55 PM,35.6,35.6,100,29.95,10.0,NE,18.4,-,0.01,,Overcast,40,2013-02-12 20:55:00
3:15 PM,35.6,35.6,100,29.95,10.0,NNE,13.8,-,N/A,,Overcast,30,2013-02-12 21:15:00
3:35 PM,35.6,35.6,100,29.96,10.0,NNE,13.8,-,N/A,,Overcast,20,2013-02-12 21:35:00
3:55 PM,35.6,33.8,93,29.97,10.0,North,16.1,-,0.01,Rain,Light Rain,10,2013-02-12 21:55:00
4:15 PM,35.6,33.8,93,29.97,10.0,North,12.7,-,N/A,Rain,Light Rain,10,2013-02-12 22:15:00
4:35 PM,33.8,33.8,100,29.98,10.0,North,13.8,-,0.01,Rain,Light Rain,360,2013-02-12 22:35:00
4:55 PM,33.8,33.8,100,29.98,7.0,North,11.5,-,0.01,,Overcast,10,2013-02-12 22:55:00
5:15 PM,33.8,33.8,100,29.98,10.0,North,11.5,-,N/A,,Overcast,10,2013-02-12 23:15:00
5:35 PM,33.8,33.8,100,29.98,10.0,North,13.8,-,0.01,,Overcast,10,2013-02-12 23:35:00
5:55 PM,33.8,33.8,100,29.99,10.0,North,15.0,-,0.01,,Overcast,10,2013-02-12 23:55:00
6:15 PM,33.8,33.8,100,29.99,7.0,North,13.8,-,0.01,,Overcast,10,2013-02-13 00:15:00
6:35 PM,33.8,33.8,100,30.00,10.0,North,15.0,-,0.01,,Overcast,360,2013-02-13 00:35:00
6:55 PM,33.8,33.8,100,30.01,10.0,North,15.0,-,0.01,,Overcast,360,2013-02-13 00:55:00
7:15 PM,33.8,33.8,100,30.01,10.0,North,17.3,21.9,N/A,,Overcast,360,2013-02-13 01:15:00
7:35 PM,33.8,33.8,100,30.02,10.0,North,18.4,24.2,N/A,,Overcast,360,2013-02-13 01:35:00
7:55 PM,33.8,33.8,100,30.03,10.0,North,17.3,-,N/A,,Overcast,360,2013-02-13 01:55:00
8:15 PM,33.8,33.8,100,30.04,10.0,North,16.1,-,N/A,,Overcast,360,2013-02-13 02:15:00
8:35 PM,33.8,33.8,100,30.04,10.0,North,15.0,-,N/A,,Overcast,360,2013-02-13 02:35:00
8:55 PM,33.8,33.8,100,30.05,10.0,North,16.1,20.7,N/A,,Overcast,360,2013-02-13 02:55:00
9:15 PM,33.8,33.8,100,30.05,10.0,North,15.0,-,N/A,,Overcast,360,2013-02-13 03:15:00
9:35 PM,33.8,33.8,100,30.06,10.0,North,9.2,-,N/A,,Overcast,350,2013-02-13 03:35:00
9:55 PM,33.8,33.8,100,30.06,10.0,North,10.4,-,N/A,,Overcast,350,2013-02-13 03:55:00
10:15 PM,33.8,33.8,100,30.07,10.0,NNW,10.4,-,N/A,,Overcast,340,2013-02-13 04:15:00
10:35 PM,33.8,33.8,100,30.07,10.0,North,11.5,-,N/A,,Overcast,360,2013-02-13 04:35:00
10:55 PM,33.8,33.8,100,30.07,10.0,North,9.2,-,N/A,,Overcast,350,2013-02-13 04:55:00
11:15 PM,33.8,33.8,100,30.07,10.0,North,8.1,-,N/A,,Overcast,360,2013-02-13 05:15:00
11:35 PM,33.8,32.0,93,30.07,10.0,North,8.1,-,N/A,,Overcast,360,2013-02-13 05:35:00
11:55 PM,33.8,32.0,93,30.07,10.0,North,9.2,-,N/A,,Overcast,350,2013-02-13 05:55:00